Location: *
(6.0000°S, 32.3997°W)
Time: 20:01:27
(UTC+00:00)

Delta 168 - Pass Details

Date: 01 April 2020
Orbit: 394 x 2051 km, 25.3° (Epoch: 27 May)

Event Time Altitude Azimuth Distance (km) Brightness Sun altitude
Rises 21:45:11 0° 290° (WNW) 2,602 7.5 -23.3°
Reaches altitude 10° 21:47:04 10° 288° (WNW) 1,852 6.5 -23.8°
Maximum altitude 21:51:17 70° 204° (SSW) 765 3.4 -24.8°
Enters shadow 21:52:00 60° 155° (SSE) 850 3.5 -25.0°
